Date_and_time,latitude,longitude,wind_speed,RelWindDirFrom,WindDirFrom,air_pressure,air_temperature,relative_humidity,Temp,platform_speed_wrt_ground,air_pressure_at_mean_sea_level,platform_orientation
2019-05-06 23:40,50.6304283333333,-96.9807716666667,5.6,6.8,105,997.55,3.1,66,5.98,0.0,1025.37,90.0
2019-05-06 23:50,50.6304316666667,-96.9807916666667,6.0,7.0,104,997.55,2.8,66,6.02,0.0,1025.42,90.0
2019-05-07 00:00,50.6304383333333,-96.9807916666667,5.9,6.5,99,997.52,3.1,61,6.04,0.0,1025.39,270.0
2019-05-07 00:10,50.63044,-96.9807883333333,6.1,6.6,101,997.55,3.1,63,6.02,0.0,1025.43,270.0
2019-05-07 00:20,50.6304416666667,-96.9807833333333,5.9,6.2,104,997.57,2.7,64,6.01,0.0,1025.46,270.0
2019-05-07 00:30,50.63048,-96.9807816666667,5.8,6.4,107,997.58,2.6,63,6.00,0.0,1025.46,270.0
2019-05-07 00:40,50.6304216666667,-96.9807783333333,4.0,5.7,122,997.60,2.8,61,6.00,0.0,1025.47,270.0
2019-05-07 00:50,50.6304333333333,-96.980775,3.4,4.6,132,997.59,2.7,64,5.99,0.0,1025.46,270.0
2019-05-07 01:00,50.63044,-96.9807716666667,3.8,5.3,132,997.63,2.6,64,6.00,0.0,1025.50,194.5
2019-05-07 01:10,50.6304433333333,-96.9807683333333,3.8,5.9,135,997.71,2.5,62,6.01,0.0,1025.58,194.5
2019-05-07 01:20,50.6304433333333,-96.98077,4.1,5.4,139,997.82,2.2,65,6.03,0.0,1025.71,194.5
2019-05-07 01:30,50.6304466666667,-96.9807683333333,5.1,5.7,132,997.88,2.8,53,6.04,0.0,1025.72,194.5
2019-05-07 01:40,50.630445,-96.9807733333333,4.3,5.3,128,997.91,3.0,57,6.06,0.0,1025.75,194.5
2019-05-07 01:50,50.6304433333333,-96.9807666666667,5.4,5.9,120,997.90,3.0,52,6.07,0.0,1025.73,194.5
2019-05-07 02:00,50.630445,-96.9807666666667,4.3,5.6,140,997.94,2.0,59,6.08,0.0,1025.82,0.0
2019-05-07 02:10,50.630435,-96.9807383333333,2.8,4.5,175,998.03,1.3,67,6.10,0.0,1025.97,0.0
2019-05-07 02:20,50.6304433333333,-96.9807666666667,3.4,4.6,200,998.19,1.9,61,6.12,0.0,1026.11,0.0
2019-05-07 02:30,50.6304466666667,-96.98078,2.1,3.8,199,998.26,2.0,63,6.12,0.0,1026.16,0.0
2019-05-07 02:40,50.63045,-96.9807766666667,1.2,2.1,157,998.36,2.0,62,6.11,0.0,1026.28,0.0
2019-05-07 02:50,50.6304483333333,-96.9807583333333,1.4,2.1,185,998.41,1.8,62,6.09,0.0,1026.34,0.0
2019-05-07 03:00,50.6304466666667,-96.980765,1.8,2.9,191,998.52,1.9,64,6.10,0.0,1026.45,73.2
2019-05-07 03:10,50.6304533333333,-96.9807666666667,2.0,3.8,229,998.61,2.0,65,6.15,0.0,1026.56,73.2
2019-05-07 03:20,50.630455,-96.9807716666667,2.2,3.6,243,998.65,2.1,62,6.20,0.0,1026.57,73.2
2019-05-07 03:30,50.63045,-96.9807683333333,1.7,2.9,206,998.70,2.1,63,6.25,0.0,1026.61,73.2
2019-05-07 03:40,50.6304516666667,-96.980775,2.6,4.8,221,998.69,1.9,63,6.30,0.0,1026.61,73.2
2019-05-07 03:50,50.6304516666667,-96.9807766666667,1.3,2.9,5,998.72,1.2,67,6.34,0.0,1026.72,73.2
2019-05-07 04:00,50.6304516666667,-96.980775,0.2,1.1,242,998.78,0.8,65,6.36,0.0,1026.84,360.0
2019-05-07 04:10,50.63043,-96.980785,1.3,3.3,55,998.80,1.3,63,6.36,0.0,1026.80,360.0
2019-05-07 04:20,50.6304433333333,-96.9807733333333,1.1,2.2,43,998.87,1.1,64,6.38,0.0,1026.88,360.0
2019-05-07 04:30,50.6304466666667,-96.9807733333333,1.4,2.2,43,998.91,1.2,63,6.39,0.0,1026.92,360.0
2019-05-07 04:40,50.6304483333333,-96.98077,1.6,2.6,8,998.92,0.8,65,6.38,0.0,1026.96,360.0
2019-05-07 04:50,50.6304483333333,-96.98077,0.2,1.1,275,998.93,0.5,70,6.35,0.0,1026.98,360.0
2019-05-07 05:00,50.6304483333333,-96.9807716666667,0.8,1.8,273,998.99,0.7,71,6.25,0.0,1027.03,347.4
2019-05-07 05:10,50.6304466666667,-96.9807716666667,0.7,2.0,269,999.03,0.3,71,6.21,0.0,1027.09,347.4
2019-05-07 05:20,50.6304233333333,-96.9808133333333,1.3,2.7,228,999.11,0.0,74,6.17,0.0,1027.19,347.4
2019-05-07 05:30,50.6304333333333,-96.9807666666667,1.8,2.7,243,999.04,-0.2,69,6.08,0.0,1027.13,347.4
2019-05-07 05:40,50.630435,-96.9807733333333,2.0,2.6,227,998.98,-0.1,69,5.99,0.0,1027.10,347.4
2019-05-07 05:50,50.6304333333333,-96.9807766666667,2.2,3.2,236,999.00,0.1,65,5.96,0.0,1027.13,347.4
2019-05-07 06:00,50.6304283333333,-96.9807733333333,2.8,3.4,240,999.09,0.6,61,5.96,0.0,1027.16,360.0
2019-05-07 06:10,50.6304266666667,-96.9807716666667,2.3,3.8,234,999.08,0.3,63,5.95,0.0,1027.18,360.0
2019-05-07 06:20,50.6304283333333,-96.9807733333333,1.0,3.0,246,999.08,-0.6,68,5.94,0.0,1027.23,360.0
2019-05-07 06:30,50.63043,-96.9807716666667,1.6,2.4,228,999.01,-0.5,69,5.92,0.0,1027.17,360.0
2019-05-07 06:40,50.630445,-96.9807766666667,2.8,3.4,218,998.96,-0.4,67,5.89,0.0,1027.13,360.0
2019-05-07 06:50,50.6304416666667,-96.9807783333333,3.0,3.7,227,999.02,-0.1,60,5.87,0.0,1027.17,360.0
2019-05-07 07:00,50.6304583333333,-96.9807816666667,3.3,4.0,223,999.09,0.2,61,5.85,0.0,1027.25,299.2
2019-05-07 07:10,50.63045,-96.980765,4.2,4.8,216,999.12,-0.2,62,5.85,0.0,1027.31,299.2
2019-05-07 07:20,50.63045,-96.9807566666667,4.8,5.4,218,999.17,-0.6,63,5.84,0.0,1027.39,299.2
2019-05-07 07:30,50.6304483333333,-96.9807583333333,4.6,5.2,220,999.11,-0.8,64,5.83,0.0,1027.34,299.2
2019-05-07 07:40,50.63045,-96.9807616666667,4.7,5.3,212,999.05,-0.8,64,5.82,0.0,1027.26,299.2
2019-05-07 07:50,50.6304483333333,-96.9807633333333,4.5,5.0,211,998.99,-0.6,65,5.84,0.0,1027.16,299.2
2019-05-07 08:00,50.6304483333333,-96.9807633333333,4.9,5.6,211,998.98,-0.3,63,5.91,0.0,1027.16,90.0
2019-05-07 08:10,50.6304266666667,-96.9807966666667,5.0,6.1,213,999.05,-0.1,63,5.95,0.0,1027.26,90.0
2019-05-07 08:20,50.63044,-96.98078,4.3,5.5,218,999.09,-0.4,64,5.98,0.0,1027.32,90.0
2019-05-07 08:30,50.6304416666667,-96.980745,4.6,5.3,224,999.09,-0.8,64,6.03,0.0,1027.33,90.0
2019-05-07 08:40,50.630445,-96.9807666666667,4.7,5.6,224,999.08,-0.9,64,6.06,0.0,1027.32,90.0
2019-05-07 08:50,50.6304516666667,-96.9807716666667,5.2,6.1,222,999.07,-0.8,64,6.07,0.0,1027.28,90.0
2019-05-07 09:00,50.6304533333333,-96.9807683333333,5.2,6.4,221,999.08,-0.7,62,6.08,0.0,1027.31,13.3
2019-05-07 09:10,50.630455,-96.9807633333333,5.7,7.1,227,999.08,-0.7,62,6.10,0.0,1027.32,13.3
2019-05-07 09:20,50.6304183333333,-96.9807633333333,6.7,7.8,227,999.10,-1.0,63,6.10,0.0,1027.38,13.3
2019-05-07 09:30,50.6304266666667,-96.9807583333333,6.3,7.4,227,999.10,-1.2,63,6.11,0.0,1027.39,13.3
2019-05-07 09:40,50.6304333333333,-96.9807633333333,6.3,7.3,225,999.13,-1.1,63,6.10,0.0,1027.41,13.3
2019-05-07 09:50,50.6304366666667,-96.980765,5.6,7.0,220,999.10,-0.9,62,6.09,0.0,1027.35,13.3
2019-05-07 10:00,50.63044,-96.9807616666667,5.4,6.7,227,999.08,-0.8,61,6.09,0.0,1027.30,131.6
2019-05-07 10:10,50.6304383333333,-96.98076,5.2,6.4,234,999.10,-0.9,61,6.08,0.0,1027.35,131.6
2019-05-07 10:20,50.6304416666667,-96.98076,3.9,5.2,238,999.13,-1.1,61,6.08,0.0,1027.41,131.6
2019-05-07 10:30,50.6304433333333,-96.9807583333333,2.5,3.8,230,999.10,-1.2,62,6.09,0.0,1027.39,131.6
2019-05-07 10:40,50.630445,-96.98076,3.7,4.4,227,999.12,-1.5,62,6.10,0.0,1027.43,131.6
2019-05-07 10:50,50.630445,-96.98076,3.1,3.8,235,999.12,-1.6,63,6.10,0.0,1027.42,131.6
2019-05-07 11:00,50.630445,-96.98076,2.8,3.6,235,999.12,-1.4,63,6.10,0.0,1027.42,167.4
2019-05-07 11:10,50.630445,-96.98076,2.6,3.3,227,999.23,-1.3,63,6.09,0.0,1027.53,167.4
2019-05-07 11:20,50.630445,-96.98076,3.1,3.7,222,999.35,-1.5,65,6.08,0.0,1027.68,167.4
2019-05-07 11:30,50.6304433333333,-96.980755,3.4,4.0,221,999.41,-1.3,62,6.06,0.0,1027.73,167.4
2019-05-07 11:40,50.6304416666667,-96.9807616666667,4.3,5.2,216,999.54,-0.9,59,6.03,0.0,1027.83,167.4
2019-05-07 11:50,50.6304416666667,-96.9807616666667,3.9,5.1,214,999.66,-0.4,58,6.01,0.0,1027.92,167.4
2019-05-07 12:00,50.630455,-96.9807666666667,4.7,6.7,211,999.82,0.0,58,5.99,0.0,1028.07,0.0
2019-05-07 12:10,50.6304516666667,-96.98077,5.8,7.0,208,999.92,0.5,56,5.98,0.0,1028.15,0.0
2019-05-07 12:20,50.6304516666667,-96.9807766666667,5.4,6.4,209,999.93,0.9,55,5.97,0.0,1028.15,0.0
2019-05-07 12:30,50.6304516666667,-96.9807766666667,5.3,7.2,206,999.96,1.3,55,5.96,0.0,1028.18,0.0
2019-05-07 12:40,50.63045,-96.9807783333333,5.7,7.7,202,1000.09,1.7,54,5.93,0.0,1028.29,0.0
2019-05-07 12:50,50.6304466666667,-96.9807683333333,5.9,7.5,198,1000.19,2.1,54,5.93,0.0,1028.37,0.0
2019-05-07 13:00,50.6304433333333,-96.9807716666667,7.0,10.0,194,1000.28,2.2,54,5.93,0.0,1028.44,270.0
2019-05-07 13:10,50.630445,-96.9807716666667,8.1,10.5,193,1000.41,2.3,54,5.93,0.0,1028.58,270.0
2019-05-07 13:20,50.6304433333333,-96.9807716666667,7.0,10.0,200,1000.33,2.6,52,5.93,0.0,1028.47,270.0
2019-05-07 13:30,50.6304433333333,-96.9807716666667,7.7,11.0,193,1000.27,2.8,52,5.92,0.0,1028.38,270.0
2019-05-07 13:40,50.630435,-96.9807683333333,9.5,12.3,187,1000.27,2.9,51,5.90,0.0,1028.35,270.0
2019-05-07 13:50,50.63044,-96.98076,7.6,10.2,189,1000.39,3.2,52,5.88,0.0,1028.44,270.0
2019-05-07 14:00,50.6304366666667,-96.9807616666667,10.3,12.6,181,1000.31,3.5,50,5.87,0.0,1028.32,142.0
2019-05-07 14:10,50.63043,-96.9808166666667,9.4,12.9,185,1000.26,3.8,48,5.87,0.0,1028.22,142.0
2019-05-07 14:20,50.630415,-96.9807666666667,9.2,11.8,190,1000.30,4.2,47,5.87,0.0,1028.23,142.0
2019-05-07 14:30,50.63041,-96.9807716666667,10.7,14.1,179,1000.26,4.3,46,5.87,0.0,1028.16,142.0
2019-05-07 14:40,50.63042,-96.980745,11.0,13.4,182,1000.25,4.8,44,5.87,0.0,1028.11,142.0
2019-05-07 14:50,50.6304333333333,-96.9807733333333,8.1,11.2,178,1000.30,5.0,44,5.87,0.0,1028.14,142.0
2019-05-07 15:00,50.6304366666667,-96.9807633333333,6.4,10.0,125,1000.35,3.9,68,5.87,0.0,1028.25,161.1
2019-05-07 15:10,50.63044,-96.980765,6.9,9.4,114,1000.33,3.4,70,5.87,0.0,1028.23,161.1
2019-05-07 15:20,50.6304216666667,-96.9807716666667,9.0,11.8,113,1000.27,3.5,69,5.87,0.0,1028.16,161.1
2019-05-07 15:30,50.630445,-96.9807633333333,6.9,9.7,116,1000.25,3.5,70,5.86,0.0,1028.13,161.1
2019-05-07 15:40,50.6304433333333,-96.9807666666667,7.5,10.4,100,1000.22,3.7,71,5.86,0.0,1028.08,161.1
2019-05-07 15:50,50.6304433333333,-96.98077,8.9,11.1,108,1000.19,3.4,74,5.86,0.0,1028.05,161.1
2019-05-07 16:00,50.6304433333333,-96.9807766666667,8.9,11.3,108,1000.16,3.3,74,5.86,0.0,1028.00,0.0
2019-05-07 16:10,50.6304516666667,-96.9808066666667,9.2,11.9,111,1000.20,3.6,73,5.87,0.0,1028.01,0.0
2019-05-07 16:20,50.6304466666667,-96.98078,10.6,12.1,114,1000.21,3.7,72,5.87,0.0,1028.00,0.0
2019-05-07 16:30,50.63044,-96.980775,9.5,11.2,116,1000.22,3.7,72,5.88,0.0,1028.00,0.0
2019-05-07 16:40,50.630445,-96.980775,9.8,12.6,122,1000.05,4.0,70,5.88,0.0,1027.80,0.0
2019-05-07 16:50,50.630445,-96.9807733333333,10.1,11.8,117,999.90,4.1,68,5.87,0.0,1027.69,0.0
2019-05-07 17:00,50.630445,-96.9807733333333,9.8,11.7,120,999.76,4.1,68,5.87,0.0,1027.57,299.2
2019-05-07 17:10,50.6304433333333,-96.9807716666667,10.9,12.5,121,999.66,4.2,67,5.89,0.0,1027.45,299.2
2019-05-07 17:20,50.6304416666667,-96.9807583333333,10.0,11.2,116,999.53,4.1,68,5.95,0.0,1027.34,299.2
2019-05-07 17:30,50.63044,-96.9807666666667,10.4,12.0,117,999.34,4.0,67,6.02,0.0,1027.13,299.2
2019-05-07 17:40,50.6304366666667,-96.9808033333333,11.3,12.9,115,999.15,4.1,68,6.03,0.0,1026.95,299.2
2019-05-07 17:50,50.6304333333333,-96.980765,11.6,13.0,111,998.94,4.2,67,6.00,0.0,1026.72,299.2
2019-05-07 18:00,50.6304333333333,-96.980785,11.4,12.9,112,998.84,4.0,69,5.96,0.0,1026.62,248.5
2019-05-07 18:10,50.6304333333333,-96.9807833333333,11.6,13.0,106,998.80,4.3,64,5.95,0.0,1026.56,248.5
2019-05-07 18:20,50.6304333333333,-96.98078,10.5,12.3,101,998.71,4.6,64,5.95,0.0,1026.46,248.5
2019-05-07 18:30,50.630435,-96.9807783333333,11.2,13.0,106,998.62,4.4,64,5.95,0.0,1026.36,248.5
2019-05-07 18:40,50.6304483333333,-96.9807666666667,10.5,12.0,100,998.51,4.5,65,5.95,0.0,1026.23,248.5
2019-05-07 18:50,50.6304466666667,-96.98077,10.2,12.0,105,998.42,4.6,65,5.96,0.0,1026.13,248.5
2019-05-07 19:00,50.6304516666667,-96.9807633333333,8.7,10.2,101,998.43,4.6,66,5.97,0.0,1026.13,360.0
2019-05-07 19:10,50.6304483333333,-96.9807666666667,8.8,9.5,100,998.37,4.6,67,5.99,0.0,1026.08,360.0
2019-05-07 19:20,50.6304433333333,-96.980765,8.7,10.1,93,998.23,5.0,61,6.03,0.0,1025.92,360.0
2019-05-07 19:30,50.6304083333333,-96.9807283333333,8.7,10.0,91,998.08,5.0,62,6.08,0.0,1025.76,360.0
2019-05-07 19:40,50.6304466666667,-96.9807566666667,8.6,10.0,89,998.00,4.9,62,6.13,0.0,1025.68,360.0
2019-05-07 19:50,50.630435,-96.980765,7.5,8.8,89,997.98,4.8,63,6.20,0.0,1025.68,360.0
2019-05-07 20:00,50.63044,-96.9807683333333,8.9,11.8,92,997.86,4.8,63,6.26,0.0,1025.54,90.0
2019-05-07 20:10,50.6304433333333,-96.9807716666667,10.3,12.5,92,997.66,5.4,58,6.31,0.0,1025.30,90.0
2019-05-07 20:20,50.6304433333333,-96.98077,10.1,12.3,92,997.55,5.6,57,6.33,0.0,1025.18,90.0
2019-05-07 20:30,50.630445,-96.9807716666667,10.0,11.3,96,997.37,5.4,60,6.32,0.0,1024.99,90.0
2019-05-07 20:40,50.630445,-96.98077,9.7,11.1,97,997.13,5.5,58,6.32,0.0,1024.74,90.0
2019-05-07 20:50,50.6304466666667,-96.980775,11.9,13.3,102,996.93,5.6,57,6.30,0.0,1024.52,90.0
2019-05-07 21:00,50.630445,-96.980775,12.1,15.0,102,996.73,5.8,56,6.28,0.0,1024.30,48.3
2019-05-07 21:10,50.6304233333333,-96.9808,9.5,11.0,101,996.66,5.6,58,6.20,0.0,1024.23,48.3
2019-05-07 21:20,50.63043,-96.9807966666667,9.3,11.2,112,996.56,5.4,59,6.18,0.0,1024.14,48.3
2019-05-07 21:30,50.63045,-96.9807566666667,9.4,10.8,110,996.43,5.2,60,6.15,0.0,1024.02,48.3
2019-05-07 21:40,50.63045,-96.9807683333333,9.0,13.0,111,996.22,5.3,60,6.17,0.0,1023.80,48.3
2019-05-07 21:50,50.6304516666667,-96.98077,10.6,13.4,114,996.13,5.6,57,6.19,0.0,1023.69,48.3
2019-05-07 22:00,50.6304233333333,-96.9807733333333,8.9,13.4,115,996.04,5.8,57,6.25,0.0,1023.56,193.3
2019-05-07 22:10,50.6304366666667,-96.9807716666667,9.0,13.2,112,995.90,5.8,56,6.33,0.0,1023.41,193.3
2019-05-07 22:20,50.6304383333333,-96.9807733333333,8.0,12.5,112,995.79,5.9,60,6.40,0.0,1023.30,193.3
2019-05-07 22:30,50.6304383333333,-96.98077,11.1,12.8,112,995.65,5.5,61,6.43,0.0,1023.17,193.3
2019-05-07 22:40,50.6304383333333,-96.9807733333333,8.9,13.7,123,995.65,5.5,59,6.46,0.0,1023.16,193.3
2019-05-07 22:50,50.6304166666667,-96.98077,6.8,10.7,120,995.57,5.8,59,6.57,0.0,1023.06,193.3
2019-05-07 23:00,50.6304316666667,-96.9807683333333,5.6,12.4,118,995.42,5.5,61,6.66,0.0,1022.93,360.0
2019-05-07 23:10,50.63042,-96.9807616666667,7.6,11.5,126,995.27,5.8,56,6.64,0.0,1022.78,360.0
2019-05-07 23:20,50.6304183333333,-96.9807683333333,7.8,13.1,117,995.13,5.9,62,6.59,0.0,1022.64,360.0
2019-05-07 23:30,50.6304216666667,-96.9807733333333,11.2,12.3,116,994.94,5.2,66,6.62,0.0,1022.47,360.0
2019-05-07 23:40,50.6304216666667,-96.9808033333333,10.4,12.7,114,994.81,5.2,66,6.63,0.0,1022.32,360.0
2019-05-07 23:50,50.63043,-96.980795,9.2,11.5,113,994.75,5.0,69,6.62,0.0,1022.25,360.0
